Location: *
(45.4354°N, 10.9686°E)
Time: 16:23:18
(UTC+00:00)

Daily predictions for brighter satellites

Satellite Brightness Start Highest point End
(mag) Time Altitude Azimuth Time Altitude Azimuth Time Altitude Azimuth
NOAA 11 4.3 17:46:52 10° SSE 17:52:14 57° ENE 17:57:37 10° N
USA 32 4.2 17:47:44 10° N 17:52:50 51° E 17:57:56 10° SSE
Cosmos 1743 2.7 17:51:02 10° S 17:54:51 78° E 17:58:43 10° NNE
Cosmos 1461 4.2 17:52:53 10° SSE 17:55:39 18° ESE 17:58:23 10° ENE
USA 186 3.5 17:53:29 10° ESE 17:55:48 18° ENE 17:58:11 10° NNE
Cosmos 2360 Rocket 2.2 17:52:43 10° NNW 17:58:25 81° ENE 18:04:04 10° SSE
Okean 2 Rocket 3.1 18:01:09 10° S 18:05:36 84° E 18:10:07 10° N
DMSP B5D1-3 4.5 18:00:53 10° NNE 18:06:00 79° ESE 18:11:06 10° S
ASTEX 1 4.3 18:02:06 10° NNE 18:06:16 27° E 18:10:25 10° SE
GP-B 3.4 18:03:39 10° NNE 18:07:55 44° E 18:12:09 10° SSE
Okean 1 Rocket 4.1 18:04:54 10° SE 18:08:26 25° E 18:11:59 10° NNE
Cosmos 1842 3.5 18:05:05 10° N 18:08:57 50° ENE 18:12:48 10° SSE
COSMOS 2455 2.9 18:04:30 10° NNW 18:10:31 64° NE 18:16:29 10° SE
CZ-4 R/B 3.4 18:07:10 10° SSW 18:10:38 32° W 18:14:11 10° NNW
Meteor 2-9 Rocket 4.4 18:06:31 10° S 18:12:09 54° E 18:17:42 10° NNE
COSMOS 2487 4.2 18:10:18 10° SW 18:13:34 37° WNW 18:16:51 10° N
SL-16 R/B 4.0 18:09:22 10° NW 18:14:26 34° WSW 18:19:28 10° SSW
Cosmos 1833 4.2 18:08:46 10° SSW 18:14:28 80° ESE 18:20:10 10° NNE
Timation 2 Rocket 4.2 18:09:18 10° S 18:15:42 52° ESE 18:21:52 10° NE
Ariane Rocket 3.1 18:12:35 10° SSE 18:17:39 86° WSW 18:22:45 10° NNW
Nadezhda 1 Rocket 4.1 18:17:11 10° SSE 18:22:59 49° E 18:28:48 10° NNE
CZ-2C R/B 3.9 18:20:51 10° NNE 18:25:10 44° E 18:29:23 10° S
SPOT 3 Rocket 3.8 18:23:27 10° SE 18:28:22 47° ENE 18:33:18 10° N
ARGOS 3.8 18:27:02 12° SE 18:31:33 36° ENE 18:36:26 10° N
NOSS 3-4 (A) 4.3 18:25:30 10° NNW 18:32:05 45° NE 18:37:42 16° ESE
NOSS 3-4 (C) 4.3 18:25:36 10° NNW 18:32:10 44° NE 18:37:46 16° ESE
Cosmos 2333 Rocket 2.4 18:27:19 10° NNW 18:32:55 55° ENE 18:37:46 14° SE
Cosmos 1536 Rocket 3.6 18:28:52 10° N 18:33:13 81° W 18:37:31 10° S
NOSS 3-3 (A) 3.9 18:35:02 10° SW 18:40:57 88° SE 18:47:38 10° NE
NOSS 3-3 (C) 3.9 18:35:09 10° SW 18:41:05 88° ESE 18:47:45 10° NE
HJ-1C 4.3 18:39:22 10° S 18:42:38 49° W 18:45:57 10° NNW
Meteor 2-15 Rocket 4.4 18:36:45 10° S 18:42:49 72° E 18:48:58 10° NNE
Cosmos 1025 Rocket 3.2 18:39:42 10° NNW 18:43:58 74° W 18:48:13 10° S
Meteor 2-15 4.5 18:38:48 10° S 18:44:57 90° E 18:51:09 10° N
MOS 1 4.4 18:40:26 10° SSE 18:46:08 79° WSW 18:51:52 10° NNW
Aureole 1 Rocket 3.3 18:42:11 10° NNW 18:47:54 86° ENE 18:51:30 15° SSE
NOSS 0 Rocket 4.3 18:44:02 10° NNW 18:50:02 48° NE 18:53:46 22° ESE
Cosmos 2341 Rocket 4.3 18:44:17 10° N 18:50:19 46° ENE 18:54:49 17° SE
Cosmos 2237 Rocket 3.1 18:45:32 10° N 18:50:40 33° NE 18:53:17 23° E
Cosmos 1441 Rocket 3.0 18:47:35 10° S 18:51:25 72° E 18:55:12 10° NNE
SJ-6B 2.8 18:48:10 11° SSE 18:52:06 78° ENE 18:56:14 10° N
BREEZE-M DEB (TANK) 4.4 18:52:19 10° WSW 18:53:34 14° SSW 18:54:43 11° S
BREEZE-M DEB (TANK) 4.0 18:52:04 10° WNW 18:56:08 51° N 19:03:23 14° E
Cosmos 1980 4.3 18:53:48 10° NNW 18:59:06 39° NE 19:01:30 27° ESE
Cosmos 1544 3.0 18:55:39 10° S 18:59:14 82° W 19:02:51 10° N
In-Cosmos 22 4.5 18:55:21 10° N 19:00:25 43° ENE 19:02:47 27° SE
H-2A R/B 1.9 18:57:11 19° SSE 19:00:42 64° ENE 19:05:39 10° N
SL-08 RB Rocket 4.1 18:59:38 28° SE 19:01:37 45° ENE 19:06:05 10° N
FREGAT/IRIS 4.2 18:59:16 10° SSW 19:01:50 32° W 19:04:26 10° NNW
Cosmos 1140 Rocket 4.5 19:00:49 10° N 19:05:19 29° ENE 19:06:32 26° E
Cosmos 1707 2.6 19:06:23 10° N 19:10:19 81° E 19:12:02 32° SSE
Cosmos 2218 Rocket 4.4 19:09:01 10° N 19:15:06 44° ENE 19:17:21 32° ESE
ATLAS 2AS CENTAUR R/B 2.9 19:08:27 10° NW 19:16:12 87° WSW 19:20:32 27° SSE
Cosmos 2154 Rocket 4.2 19:10:14 10° NNW 19:16:24 71° W 19:22:33 10° S
SL-8 R/B 3.6 19:12:46 10° WSW 19:17:34 89° SE 19:19:44 33° ENE
SL-16 R/B 3.5 19:13:34 10° N 19:18:04 23° NE 19:19:18 22° ENE
ADEOS Rocket 3.4 19:12:32 10° NNE 19:19:43 71° ESE 19:27:24 10° S
COSMOS 2428 3.0 19:18:13 10° NNW 19:23:50 63° WSW 19:27:35 21° S
Cosmos 2366 rocket 4.3 19:18:16 10° N 19:24:24 48° ENE 19:26:18 37° ESE
Meteor 1-15 Rocket 4.2 19:19:48 10° S 19:25:29 72° E 19:31:19 10° NNE
USA 186 3.8 19:23:51 12° SSW 19:26:31 29° W 19:29:33 10° NNW
Cosmos 1455 Rocket 3.5 19:28:36 42° ENE 19:28:36 42° ENE 19:32:10 10° NNE
CZ-2C R/B 3.0 19:29:08 42° SE 19:30:51 72° ENE 19:36:15 10° N
Cosmos 2219 Rocket 2.7 19:26:55 10° NW 19:32:23 55° WSW 19:35:48 23° S
Resurs 01 Rocket 1.5 19:32:17 58° SE 19:33:05 78° ENE 19:37:32 10° N
Terra 4.1 19:35:19 12° NE 19:35:19 12° NE 19:36:19 10° NNE
Cosmos 1461 3.7 19:30:31 10° SW 19:34:24 48° NW 19:38:16 10° NNE
Resurs 1-3 3.7 19:34:40 43° S 19:36:03 76° WSW 19:40:27 10° NNW
Cosmos 389 Rocket 2.7 19:32:48 10° NNW 19:35:51 66° NW 19:35:51 66° NW
Cosmos 1190 Rocket 4.0 19:31:12 10° NNW 19:36:31 67° ENE 19:37:29 54° ESE
SL-8 Rocket 3.9 19:30:57 10° N 19:37:11 73° E 19:39:35 39° SSE
BREEZE M DEB (TANK) 3.0 19:35:33 10° WNW 19:38:02 45° N 19:38:44 40° NE
Meteor 1-4 Rocket 3.1 19:38:15 10° N 19:41:04 52° N 19:41:04 52° N
DMSP B5D2-2 4.0 19:42:43 10° NNE 19:47:59 65° ESE 19:48:20 63° SE
Cosmos 2219 3.1 19:43:40 10° SSW 19:49:24 85° ESE 19:55:12 10° NNE
Cosmos 1437 Rocket 4.1 19:47:40 10° N 19:49:50 30° NNE 19:49:50 30° NNE
Cosmos 1959 Rocket 4.3 19:46:48 10° N 19:52:57 79° E 19:54:27 54° SSE
CZ-2C R/B 3.4 19:48:19 10° NNE 19:52:13 38° ENE 19:52:13 38° ENE
Cosmos 2227 Rocket 2.9 19:55:32 38° NE 19:55:32 38° NE 19:59:13 10° NE
Cosmos 1023 Rocket 4.3 19:49:47 10° NNW 19:54:58 73° ENE 19:55:03 73° ENE
SPOT 1/Viking Rocket 4.4 20:00:14 36° NE 20:00:14 36° NE 20:04:10 10° N
Cosmos 2056 Rocket 3.4 20:00:16 54° SSW 20:01:35 87° ESE 20:07:02 10° NNE
Cosmos 2297 Rocket 2.4 20:06:19 54° NE 20:06:19 54° NE 20:10:47 10° NNE
Cosmos 405 Rocket 4.2 20:07:26 32° NNW 20:07:26 32° NNW 20:09:44 10° N
Meteor 1-24 Rocket 3.6 20:01:13 10° N 20:06:57 75° ENE 20:07:05 74° E
Cosmos 407 Rocket 3.8 20:06:43 10° NNW 20:11:45 56° WSW 20:12:11 54° SW
Meteor 2-5 Rocket 3.9 20:07:06 10° NNW 20:12:52 73° W 20:13:50 60° SSW
Cosmos 1624 Rocket 4.1 20:13:24 56° SW 20:14:24 71° WNW 20:19:37 10° NNE
MetOp-B 4.0 20:15:24 82° WSW 20:15:26 82° WSW 20:20:50 10° NNW
Cosmos 2333 Rocket 4.1 20:12:18 10° NW 20:16:48 25° WSW 20:19:49 16° SW
SPOT 5 4.3 20:23:09 29° NNE 20:23:09 29° NNE 20:25:53 10° N
NOSS 3-4 (A) 4.3 20:16:23 10° NW 20:23:14 53° WSW 20:25:09 43° SSW
NOSS 3-4 (C) 4.3 20:16:28 10° NW 20:23:20 54° WSW 20:25:14 44° SSW
Cosmos 1954 Rocket 4.4 20:26:20 10° NNW 20:30:43 60° NW 20:30:43 60° NW
Spot 2 Rocket 4.2 20:34:29 49° W 20:34:29 49° W 20:39:05 10° NNW
Cosmos 2237 Rocket 2.9 20:29:28 10° NW 20:34:52 44° WSW 20:35:08 44° WSW
Meteor 1-22 Rocket 4.4 20:36:06 75° W 20:36:10 75° WNW 20:42:19 10° N
ERS-1 Rocket 3.9 20:40:20 43° N 20:40:20 43° N 20:43:43 10° NNW
H-2A R/B 4.4 20:37:49 11° SW 20:40:37 16° W 20:43:40 10° NW
USA 234 4.1 20:39:20 37° NE 20:40:46 42° NNE 20:46:49 10° NW
Nadezhda 3 Rocket 4.5 20:59:21 53° N 20:59:21 53° N 21:04:01 10° N
SL-16 R/B 3.0 20:57:04 10° NNW 21:01:11 47° NW 21:01:11 47° NW
Resurs 01 Rocket 4.5 21:09:52 11° W 21:10:08 11° W 21:11:29 10° WNW
Terra 3.8 21:14:13 25° NNW 21:14:13 25° NNW 21:16:11 10° NNW
CZ-2C R/B 4.3 21:29:00 10° N 21:33:43 29° WNW 21:33:43 29° WNW
Cosmos 2227 Rocket 4.0 21:37:14 26° WNW 21:38:04 27° NW 21:42:54 10° N
Cosmos 2297 Rocket 4.3 21:48:00 20° WNW 21:49:45 23° NW 21:54:09 10° N
CZ-4C R/B 4.1 22:35:16 10° NNW 22:41:02 34° NNE 22:41:02 34° NNE
USA 267 4.5 23:25:58 10° NE 23:30:27 36° NNE 23:30:27 36° NNE
